Change the Weather History Date:

Tuesday, April 2, 2013

  Actual Average Record
Temperature  
Mean Temperature 43 °F -  
Max Temperature 46 °F 69 °F 87 °F (1940)
Min Temperature 41 °F 47 °F 28 °F (1962)
Degree Days  
Heating Degree Days 22    
Moisture  
Dew Point 29 °F    
Average Humidity 59    
Maximum Humidity 79    
Minimum Humidity 44    
Precipitation  
Precipitation 0.00 in - - ()
Sea Level Pressure  
Sea Level Pressure 30.27 in    
Wind  
Wind Speed 9 mph (NE)    
Max Wind Speed 14 mph    
Max Gust Speed -    
Visibility 10 miles    
Events Rain    
Averages and records for this station are not official NWS values.
T = Trace of Precipitation, MM = Missing Value Source: NWS Daily Summary

Daily Weather History Graph

Daily Weather History Graph

Search for Another Location

Airport or City:

Trip Planner

Search our weather history database for the weather conditions in past years. The results will help you decide how hot, cold, wet, or windy it might be!

Date:

Astronomy

Apr. 02, 2013 Rise Set
Actual Time 6:43 AM CDT 7:22 PM CDT
Civil Twilight 6:18 AM CDT 7:48 PM CDT
Nautical Twilight 5:47 AM CDT 8:18 PM CDT
Astronomical Twilight 5:16 AM CDT 8:49 PM CDT
Moon 1:19 AM CDT (4/2) 11:42 AM CDT (4/2)
Length of Visible Light 13h 30m
Length of Day
12h 38m
Waning Gibbous, 55% of the Moon is Illuminated
Apr 2
Waning Gibbous
Apr 2
Last Quarter
Apr 10
New
Apr 18
First Quarter
Apr 25
Full

Hourly Weather History & Observations

Time (CDT) Temp. Windchill Dew Point Humidity Pressure Visibility Wind Dir Wind Speed Gust Speed Precip Events Conditions
12:53 AM 43.0 °F 38.8 °F 34.0 °F 71% 30.20 in 10.0 mi NE 6.9 mph - N/A   Clear
1:53 AM 42.1 °F 37.1 °F 30.9 °F 65% 30.21 in 10.0 mi NE 8.1 mph - N/A   Clear
2:53 AM 43.0 °F 38.2 °F 32.0 °F 65% 30.22 in 10.0 mi NE 8.1 mph - N/A   Scattered Clouds
3:53 AM 43.0 °F 38.8 °F 32.0 °F 65% 30.22 in 10.0 mi NE 6.9 mph - N/A   Overcast
4:53 AM 43.0 °F 37.7 °F 30.0 °F 60% 30.23 in 10.0 mi ENE 9.2 mph - N/A   Overcast
5:53 AM 43.0 °F 37.7 °F 28.9 °F 58% 30.24 in 10.0 mi ENE 9.2 mph - N/A   Overcast
6:53 AM 43.0 °F 38.8 °F 30.0 °F 60% 30.27 in 10.0 mi NE 6.9 mph - N/A   Overcast
7:53 AM 44.1 °F 38.1 °F 28.0 °F 53% 30.28 in 10.0 mi ENE 11.5 mph - N/A   Overcast
8:53 AM 44.1 °F 37.4 °F 26.1 °F 49% 30.30 in 10.0 mi NE 13.8 mph - N/A   Overcast
9:53 AM 44.1 °F 37.7 °F 25.0 °F 47% 30.30 in 10.0 mi ENE 12.7 mph - N/A   Overcast
10:53 AM 45.0 °F 39.7 °F 26.1 °F 48% 30.31 in 10.0 mi ENE 10.4 mph - N/A   Overcast
11:53 AM 45.0 °F 38.9 °F 24.1 °F 44% 30.32 in 10.0 mi NE 12.7 mph - N/A   Overcast
12:53 PM 45.0 °F 38.9 °F 25.0 °F 46% 30.31 in 10.0 mi NE 12.7 mph - N/A   Overcast
1:53 PM 45.0 °F 40.1 °F 25.0 °F 46% 30.30 in 10.0 mi NNE 9.2 mph - N/A   Overcast
2:53 PM 44.1 °F 38.1 °F 26.1 °F 49% 30.29 in 10.0 mi NE 11.5 mph - N/A   Overcast
3:53 PM 43.0 °F 37.7 °F 27.0 °F 53% 30.27 in 10.0 mi NE 9.2 mph - N/A   Overcast
4:53 PM 43.0 °F 38.2 °F 27.0 °F 53% 30.27 in 10.0 mi NE 8.1 mph - N/A   Overcast
5:53 PM 43.0 °F 38.2 °F 28.9 °F 58% 30.28 in 10.0 mi NNE 8.1 mph - N/A   Overcast
6:53 PM 42.1 °F 37.7 °F 30.0 °F 62% 30.27 in 10.0 mi NE 6.9 mph - 0.00 in   Overcast
7:53 PM 41.0 °F 35.8 °F 32.0 °F 70% 30.27 in 10.0 mi NNE 8.1 mph - 0.00 in Rain Light Rain
8:53 PM 41.0 °F 38.0 °F 35.1 °F 79% 30.27 in 10.0 mi NE 4.6 mph - 0.00 in   Overcast
9:53 PM 42.1 °F 39.2 °F 34.0 °F 73% 30.28 in 10.0 mi NE 4.6 mph - N/A   Overcast
10:53 PM 42.1 °F 40.2 °F 35.1 °F 76% 30.27 in 10.0 mi NE 3.5 mph - N/A   Overcast
11:53 PM 42.1 °F 38.4 °F 35.1 °F 76% 30.27 in 10.0 mi NNE 5.8 mph - N/A   Overcast